User: anonymous   Login
Location: Andrest
(43.3200°N, 0.0641°E)
Time: 04:27:59
(UTC+00:00)
Language:

SL-16 DEB - Orbit

View from above orbital plane
View from above orbital plane
View from above satellite
View from above satellite

Ground track
Ground track

The orbit data is extracted from the following two-line orbital elements,

1 39841U 92093KT  21165.55383662  .00002240  00000-0  25334-3 0  9999
2 39841  70.7536  94.1807 0042446 332.3568 202.6102 14.87153881409040
Epoch (UTC): 14 June 2021 13:17:31
Eccentricity: 0.0042446
inclination: 70.7536°
perigee height: 577 km
apogee height: 636 km
right ascension of ascending node: 94.1807°
argument of perigee: 332.3568°
revolutions per day: 14.87153881
mean anomaly at epoch: 202.6102°
orbit number at epoch: 40904

The dashed part of the orbit path shows where the satellite is in the earth's shadow,  

DLR